Weather in Demidovka

Ukraine / Rovno District     50°25′51″N   25°20′11″E
temp.,
°C
wind,
m/s
gust,
m/s
humid.,
%
clouds,
%
prec.,
mm/h
press.,
hPa
HPBL,
m
14 june, mon
mon1400:00+11nnw6149566 0.6 1014589
03:00+12nnw71393100 0.8 1014681
06:00+11nnw61193100 0.1 1015598
09:00+12nnw6989100 0.1 1016569
12:00+14n6885100 0.0 1017814
15:00+15n5780100 0.1 1017926
18:00+16n4784100 0.1 1017713
21:00+15n378953 0.1 1017239
15 june, tue
tue1500:00+12nnw369611 0.0 1018116
03:00+12n35965 0.0 101886
06:00+11nnw34960 0.0 101889
09:00+17nnw35820 0.0 1018405
12:00+20nnw456947 0.0 10181130
15:00+21nnw4569100 0.1 10171201
18:00+21nw456771 0.1 10161168
21:00+17nw368299 0.1 1016104
16 june, wed
wed1600:00+14nnw3385100 0.0 101635
03:00+13nnw338995 0.0 101636
06:00+13n35957 0.0 101795
09:00+18n45825 0.0 1017447
12:00+22nne456933 0.3 10171189
15:00+23nne566292 0.7 10171615
18:00+23nne46690 0.6 10171261
21:00+18nne48865 0.8 1018156
17 june, thu
thu1700:00+15nne3685100 0.0 102098
03:00+13ne34874 0.0 102164
06:00+12ne35895 0.0 102194
09:00+18nne34795 0.0 1021332
12:00+22ne446740 0.0 1022932
15:00+24ene456123 0.0 10211471
18:00+25ne35653 0.0 10211435
21:00+20nne33830 0.0 102146
18 june, fri
fri1800:00+18e33880 0.0 102225
03:00+17e33940 0.0 102251
06:00+16e39965 0.0 1023205
09:00+21ese57805 0.0 1023470
12:00+24ese56640 0.0 10231035
15:00+25e56585 0.0 10221379
18:00+25e56680 0.0 10221288
21:00+21ese49860 0.0 1022205